Miscellaneous Local Product
Issued by NWS Hastings, NE

Home | Current Version | Previous Version | Text Only | Print | Product List | Glossary On
Versions: 1 2 3 4 5 6 7 8 9 10 11 12 13 14 15 16 17 18 19 20 21 22 23 24 25 26 27 28 29 30 31 32 33 34 35 36 37 38 39 40 41 42 43 44 45 46 47 48 49 50
000
AXUS43 KGID 300302
MISGRI

GID CWA HOURLY WEATHER ROUNDUP
NATIONAL WEATHER SERVICE HASTINGS NE
1000 PM CDT SUN MAR 29 2015

NOTE: "FAIR" INDICATES FEW OR NO CLOUDS BELOW 12,000 FEET WITH NO
SIGNIFICANT WEATHER AND/OR OBSTRUCTIONS TO VISIBILITY.

...SOUTH CENTRAL NEBRASKA...

CITY           SKY/WX    TMP DP  RH WIND       PRES   REMARKS
GRAND ISLAND   CLEAR     41  18  39 SW5       30.17R
HASTINGS       CLEAR     42  16  34 W3        30.16R
KEARNEY        CLEAR     43  10  26 CALM      30.17S
ORD            CLEAR     37  17  44 S6        30.13S HAZE    WCI  32
YORK           CLEAR     46  21  36 CALM      30.16R
AURORA         CLEAR     42  18  38 CALM      30.16R
LEXINGTON      PTCLDY    42  14  32 S5        30.17R
HOLDREGE       CLEAR     45  12  26 CALM      30.17R
HEBRON         CLEAR     43  24  47 CALM      30.17R

...NEBRASKA PANHANDLE...

CITY           SKY/WX    TMP DP  RH WIND       PRES   REMARKS
CHADRON        CLOUDY    49  27  42 CALM      30.07R
ALLIANCE       CLOUDY    45  28  51 S7        30.11S
SCOTTSBLUFF    PTCLDY    48  24  39 SE7       30.12S
SIDNEY         CLEAR     40  24  53 S8        30.16R WCI  34

...WESTERN AND NORTH CENTRAL NEBRASKA...

CITY           SKY/WX    TMP DP  RH WIND       PRES   REMARKS
VALENTINE      CLOUDY    42  22  44 SW6       30.09F
AINSWORTH      MOCLDY    42  22  44 SW3       30.11S
ONEILL         PTCLDY    45  23  42 SW5       30.12R
BROKEN BOW     MOCLDY    34  15  46 CALM      30.15R
IMPERIAL       CLEAR     46  17  31 S6        30.16S
NORTH PLATTE   CLEAR     41  21  44 SE6       30.14S
MCCOOK         CLEAR     49  17  28 SE6       30.17R

...EASTERN NEBRASKA...

CITY           SKY/WX    TMP DP  RH WIND       PRES   REMARKS
NORFOLK        CLEAR     40  24  53 SW8       30.11S WCI  34
SO SIOUX CITY  CLEAR     42  20  41 W5        30.10R
TEKAMAH        CLEAR     42  22  44 W24       30.11R
COLUMBUS       CLEAR     37  18  44 CALM      30.15S
ALBION         CLEAR     37  21  50 CALM      30.13S
OMAHA EPPLEY   CLEAR     47  24  40 CALM      30.12R
OFFUTT AFB     CLEAR     42  22  46 SW3       30.12R
MILLARD        CLEAR     47  27  44 CALM      30.12R
LINCOLN        CLEAR     42  25  50 CALM      30.16R
NEBRASKA CITY  CLEAR     50  19  29 NW6       30.13S
BEATRICE       CLEAR     43  27  52 CALM      30.16R
FALLS CITY     CLEAR     48  27  44 W7        30.14R

...NORTHERN KANSAS...

CITY           SKY/WX    TMP DP  RH WIND       PRES   REMARKS
GOODLAND       CLEAR     42  20  41 SE6       30.20R
HILL CITY      CLEAR     41  16  36 CALM      30.19R
NORTON         CLEAR     46   7  19 CALM      30.18R
PHILLIPSBURG   CLEAR     46  14  27 W5        30.19R
SMITH CENTER   CLEAR     46  16  29 NE7       30.18S
BELOIT         CLEAR     37  19  48 N3        30.17R
HAYS           CLEAR     45  12  26 NE8       30.18S
RUSSELL        CLEAR     53  16  23 NE5       30.17R
CONCORDIA      CLEAR     52  22  30 CALM      30.16S
SALINA         CLEAR     57  21  24 NE5       30.18R
TOPEKA         CLEAR     49  35  58 W3        30.17R



USA.gov is the U.S. government's official web portal to all federal, state and local government web resources and services.